Hovedside
METAR-TAF:

METAR-TAF

Lufthavner :

Bowers Field

Ellensburg, Washington, USA

breddegrad: 47-02-01N, lengdegrad: 120-31-45W, høyde over havet: 536 m

Gjeldene værobservasjon

Denne rapporten ble laget for 8 minutter siden, klokken 14:53 UTC
Flau vind
Temperatur -4°C
Luftfuktighet 74%
Trykk 1018 hPa
Sikt: 16.1 km
Skyfri himmel

METAR: KELN 211453Z AUTO 00000KT 10SM CLR M04/M08 A3007 RMK AO2 SLP201 I1000 I3001 T10441078 53024 $

Tid: 07:01 (15:01 UTC)


TAF: fraværende

Værobservasjoner og værvarsel for over 4000 flyplasser (METAR- og TAF-rapporter).

Tilgjengelige stasjoner er representert av de røde og gule prikkene på kartet.

Hold musepekeren over prikken for å se navnet på stasjonen.

Klikk så for å se værobservasjoner og -varsler.

For å forandre kartet kan du klikke på den grønne knappen med svart kryss for å zoome inn, på den grønne knappen med strek for å zoome ut, eller på de grønne pilene for å se tilstøtende kart.


METAR-TAF: